weather.gov     
National Weather Service

Terminal Aerodrome Forecast
NWS Homepage
This page is being discontinued on March 12, 2014.
The same data is available at this site. Please update your bookmarks.
Thank you, and we apologize for the inconvenience.
Please send an email to SR-SRH.Webmaster@noaa.gov with any concerns.


Current Version
Previous Version:    01  02  03  04  05  06  07  08  09  10  11  12  13  14  15  16  17  18  19  20  21  22  23  24  25  26  27  28  29  30  
   31  32  33  34  35  36  37  38  39  40  41  42  
[Printable]
483
FTUS44 KMOB 021100 RRA
TAFBFM
TAF
KBFM 021156Z 0212/0312 12003KT P6SM BKN045 BKN250
     FM021300 14005KT P6SM VCSH SCT030 BKN050
      TEMPO 0218/0222 4SM TSRA BKN030CB
     FM030000 15005KT P6SM VCTS SCT030CB BKN100
      TEMPO 0300/0304 5SM -TSRA BKN050CB=


U.S. Dept. of Commerce
NOAA National Weather Service
1325 East West Highway
Silver Spring, MD 20910
E-mail: w-nws.webmaster@noaa.gov
Page last modified: May 16, 2007
NATIONAL WEATHER SERVICE: for Safety, for Work, for Fun - FOR LIFE